Location: Peach Mountain Observatory
(42.3967°N, 83.9367°W)
Time: 09:27:24
(UTC-05:00)

Transit 4A - Pass Details

Date: 20 January 2020
Orbit: 872 x 973 km, 66.8° (Epoch: 28 February)

Event Time Altitude Azimuth Distance (km) Brightness Sun altitude
Rises 07:11:24 0° 181° (S) 3,563 11.2 -9.1°
Reaches altitude 10° 07:14:10 10° 172° (S) 2,607 10.6 -8.6°
Maximum altitude 07:19:28 33° 110° (ESE) 1,476 9.9 -7.7°
Drops below altitude 10° 07:24:41 10° 48° (NE) 2,564 10.6 -6.8°
Sets 07:27:23 0° 39° (NE) 3,495 11.2 -6.3°
